Location: Great Snoring
(52.8667°N, 0.8833°E)
Time: 21:10:47
(UTC+00:00)

BlueWalker 3 - Pass Details

Date: 19 May 2025
Orbit: 460 x 472 km, 53.2° (Epoch: 18 June)

Event Time Altitude Azimuth Distance (km) Brightness Sun altitude
Rises 21:02:51 0° 286° (WNW) 2,494 6.5 -8.4°
Reaches altitude 10° 21:05:03 10° 279° (W) 1,619 5.3 -8.6°
Maximum altitude 21:08:32 44° 207° (SSW) 656 2.3 -8.9°
Enters shadow 21:11:33 13° 137° (SE) 1,441 3.6 -9.2°
